Time,TemperatureF,DewpointF,PressureIn,WindDirection,WindDirectionDegrees,WindSpeedMPH,WindSpeedGustMPH,Humidity,HourlyPrecipIn,Conditions,Clouds,dailyrainin,SoftwareType,DateUTC
2013-02-27 00:02:00,46.0,42.7,30.14,North,0,0.0,0.0,88,0.00,BKN,SKC,0.00,WeatherDisplay:10.37,2013-02-26 23:02:00,
2013-02-27 00:07:00,46.0,42.7,30.14,NNW,338,0.0,0.0,88,0.00,BKN,SKC,0.00,WeatherDisplay:10.37,2013-02-26 23:07:00,
2013-02-27 00:12:00,46.0,42.7,30.14,NNW,338,0.0,0.0,88,0.00,BKN,SKC,0.00,WeatherDisplay:10.37,2013-02-26 23:12:00,
2013-02-27 00:17:00,46.0,42.7,30.14,ENE,68,0.0,0.0,88,0.00,BKN,SKC,0.00,WeatherDisplay:10.37,2013-02-26 23:17:00,
2013-02-27 00:22:00,46.0,42.7,30.14,NNE,22,0.0,0.0,88,0.00,BKN,SKC,0.00,WeatherDisplay:10.37,2013-02-26 23:22:00,
2013-02-27 00:27:00,46.0,42.7,30.14,NNE,22,0.0,0.0,88,0.00,BKN,SKC,0.00,WeatherDisplay:10.37,2013-02-26 23:27:00,
2013-02-27 00:32:00,45.9,42.5,30.14,NNW,338,0.0,0.0,88,0.00,BKN,SKC,0.00,WeatherDisplay:10.37,2013-02-26 23:32:00,
2013-02-27 00:37:00,45.9,42.8,30.13,NW,315,0.0,0.0,89,0.00,BKN,SKC,0.00,WeatherDisplay:10.37,2013-02-26 23:37:00,
2013-02-27 00:42:00,45.7,42.6,30.14,NNW,338,0.0,0.0,89,0.00,BKN,SKC,0.00,WeatherDisplay:10.37,2013-02-26 23:42:00,
2013-02-27 00:47:00,45.7,42.6,30.14,NNE,22,0.0,0.0,89,0.00,BKN,SKC,0.00,WeatherDisplay:10.37,2013-02-26 23:47:00,
2013-02-27 00:52:00,45.7,42.6,30.14,NNE,22,0.0,0.0,89,0.00,BKN,SKC,0.00,WeatherDisplay:10.37,2013-02-26 23:52:00,
2013-02-27 00:57:00,45.7,42.6,30.14,North,0,0.0,0.0,89,0.00,BKN,SKC,0.00,WeatherDisplay:10.37,2013-02-26 23:57:00,
2013-02-27 01:02:00,45.7,42.6,30.14,North,0,0.0,0.0,89,0.00,BKN,SKC,0.00,WeatherDisplay:10.37,2013-02-27 00:02:00,
2013-02-27 01:07:00,45.7,42.6,30.14,NNE,22,0.0,0.0,89,0.00,BKN,SKC,0.00,WeatherDisplay:10.37,2013-02-27 00:07:00,
2013-02-27 01:12:00,45.7,42.6,30.15,NNE,22,0.0,0.0,89,0.00,BKN,SKC,0.00,WeatherDisplay:10.37,2013-02-27 00:12:00,
2013-02-27 01:17:00,45.5,42.4,30.15,North,0,0.0,0.0,89,0.00,BKN,SKC,0.00,WeatherDisplay:10.37,2013-02-27 00:17:00,
2013-02-27 01:22:00,45.3,42.3,30.15,North,0,0.0,0.0,89,0.00,BKN,SKC,0.00,WeatherDisplay:10.37,2013-02-27 00:22:00,
2013-02-27 01:27:00,45.3,42.3,30.15,NNE,22,0.7,1.1,89,0.00,BKN,SKC,0.00,WeatherDisplay:10.37,2013-02-27 00:27:00,
2013-02-27 01:32:00,45.3,42.3,30.15,North,0,0.0,0.0,89,0.00,BKN,SKC,0.00,WeatherDisplay:10.37,2013-02-27 00:32:00,
2013-02-27 01:37:00,45.3,42.3,30.15,NNW,338,0.0,0.0,89,0.00,BKN,SKC,0.00,WeatherDisplay:10.37,2013-02-27 00:37:00,
2013-02-27 01:42:00,45.3,42.3,30.15,NNE,22,0.0,0.0,89,0.00,BKN,SKC,0.00,WeatherDisplay:10.37,2013-02-27 00:42:00,
2013-02-27 01:47:00,45.1,42.1,30.16,NNW,338,0.0,0.0,89,0.00,BKN,SKC,0.00,WeatherDisplay:10.37,2013-02-27 00:47:00,
2013-02-27 01:52:00,45.0,41.9,30.16,NW,315,0.0,0.0,89,0.00,BKN,SKC,0.00,WeatherDisplay:10.37,2013-02-27 00:52:00,
2013-02-27 01:57:00,45.0,41.9,30.16,NW,315,0.0,0.0,89,0.00,BKN,SKC,0.00,WeatherDisplay:10.37,2013-02-27 00:57:00,
2013-02-27 02:02:00,45.0,41.9,30.16,NW,315,0.0,0.0,89,0.00,BKN,SKC,0.00,WeatherDisplay:10.37,2013-02-27 01:02:00,
2013-02-27 02:07:00,45.0,41.9,30.16,NW,315,0.0,0.0,89,0.00,BKN,SKC,0.00,WeatherDisplay:10.37,2013-02-27 01:07:00,
2013-02-27 02:12:00,44.8,41.7,30.15,NNW,338,0.0,0.0,89,0.00,BKN,SKC,0.00,WeatherDisplay:10.37,2013-02-27 01:12:00,
2013-02-27 02:17:00,44.8,41.7,30.15,NNW,338,0.0,0.0,89,0.00,BKN,SKC,0.00,WeatherDisplay:10.37,2013-02-27 01:17:00,
2013-02-27 02:22:00,44.8,41.7,30.15,NW,315,0.0,0.0,89,0.00,BKN,SKC,0.00,WeatherDisplay:10.37,2013-02-27 01:22:00,
2013-02-27 02:27:00,44.8,41.7,30.15,WNW,292,0.0,0.0,89,0.00,BKN,SKC,0.00,WeatherDisplay:10.37,2013-02-27 01:27:00,
2013-02-27 02:32:00,44.8,41.7,30.15,NW,315,0.0,0.0,89,0.00,BKN,SKC,0.00,WeatherDisplay:10.37,2013-02-27 01:32:00,
2013-02-27 02:37:00,44.8,41.7,30.15,NNW,338,0.0,0.0,89,0.00,BKN,SKC,0.00,WeatherDisplay:10.37,2013-02-27 01:37:00,
2013-02-27 02:42:00,44.8,41.7,30.15,NNW,338,0.0,0.0,89,0.00,BKN,SKC,0.00,WeatherDisplay:10.37,2013-02-27 01:42:00,
2013-02-27 02:47:00,44.8,41.7,30.15,NNW,338,0.0,0.0,89,0.00,BKN,SKC,0.00,WeatherDisplay:10.37,2013-02-27 01:47:00,
2013-02-27 02:52:00,44.8,41.7,30.15,NNW,338,0.0,0.0,89,0.00,BKN,SKC,0.00,WeatherDisplay:10.37,2013-02-27 01:52:00,
2013-02-27 02:57:00,44.8,41.7,30.15,NNW,338,0.0,0.0,89,0.00,BKN,SKC,0.00,WeatherDisplay:10.37,2013-02-27 01:57:00,
2013-02-27 03:02:00,44.8,41.7,30.15,NNW,338,0.0,0.0,89,0.00,BKN,SKC,0.00,WeatherDisplay:10.37,2013-02-27 02:02:00,
2013-02-27 03:07:00,44.8,41.7,30.15,NNW,338,0.0,0.0,89,0.00,BKN,SKC,0.00,WeatherDisplay:10.37,2013-02-27 02:07:00,
2013-02-27 03:12:00,44.8,41.7,30.15,NNW,338,0.0,0.0,89,0.00,BKN,SKC,0.00,WeatherDisplay:10.37,2013-02-27 02:12:00,
2013-02-27 03:17:00,44.8,41.7,30.14,West,270,0.0,0.0,89,0.00,BKN,SKC,0.00,WeatherDisplay:10.37,2013-02-27 02:17:00,
2013-02-27 03:22:00,44.8,41.7,30.14,NW,315,0.0,0.0,89,0.00,BKN,SKC,0.00,WeatherDisplay:10.37,2013-02-27 02:22:00,
2013-02-27 03:27:00,44.8,41.7,30.14,NE,45,0.0,0.0,89,0.00,BKN,SKC,0.00,WeatherDisplay:10.37,2013-02-27 02:27:00,
2013-02-27 03:32:00,44.8,41.7,30.15,NE,45,0.0,0.0,89,0.00,BKN,SKC,0.00,WeatherDisplay:10.37,2013-02-27 02:32:00,
2013-02-27 03:37:00,44.4,41.4,30.15,ESE,112,0.1,0.0,89,0.00,BKN,SKC,0.00,WeatherDisplay:10.37,2013-02-27 02:37:00,
2013-02-27 03:42:00,44.2,40.9,30.15,ENE,68,0.6,1.1,88,0.00,BKN,SKC,0.00,WeatherDisplay:10.37,2013-02-27 02:42:00,
2013-02-27 03:47:00,43.9,40.6,30.15,ESE,112,0.0,0.0,88,0.00,BKN,SKC,0.00,WeatherDisplay:10.37,2013-02-27 02:47:00,
2013-02-27 03:52:00,43.7,40.4,30.16,ESE,112,0.0,0.0,88,0.00,BKN,SKC,0.00,WeatherDisplay:10.37,2013-02-27 02:52:00,
2013-02-27 03:57:00,43.5,39.9,30.15,SSE,158,0.0,0.0,87,0.00,BKN,SKC,0.00,WeatherDisplay:10.37,2013-02-27 02:57:00,
2013-02-27 04:02:00,43.5,39.9,30.15,East,90,0.0,0.0,87,0.00,BKN,SKC,0.00,WeatherDisplay:10.37,2013-02-27 03:02:00,
2013-02-27 04:08:00,43.3,39.7,30.15,SSE,158,0.0,0.0,87,0.00,BKN,SKC,0.00,WeatherDisplay:10.37,2013-02-27 03:08:00,
2013-02-27 04:13:00,43.3,39.7,30.15,ESE,112,0.0,0.0,87,0.00,BKN,SKC,0.00,WeatherDisplay:10.37,2013-02-27 03:13:00,
2013-02-27 04:18:00,43.3,39.7,30.15,SSE,158,0.0,0.0,87,0.00,BKN,SKC,0.00,WeatherDisplay:10.37,2013-02-27 03:18:00,
2013-02-27 04:23:00,43.3,39.7,30.15,ENE,68,0.0,0.0,87,0.00,BKN,SKC,0.00,WeatherDisplay:10.37,2013-02-27 03:23:00,
2013-02-27 04:28:00,43.2,39.6,30.15,NE,45,0.0,0.0,87,0.00,BKN,SKC,0.00,WeatherDisplay:10.37,2013-02-27 03:28:00,
2013-02-27 04:33:00,43.2,39.6,30.15,West,270,0.1,0.0,87,0.00,BKN,SKC,0.00,WeatherDisplay:10.37,2013-02-27 03:33:00,
2013-02-27 04:38:00,43.0,39.4,30.15,West,270,0.0,0.0,87,0.00,BKN,SKC,0.00,WeatherDisplay:10.37,2013-02-27 03:38:00,
2013-02-27 04:43:00,43.0,39.4,30.15,West,270,0.5,1.3,87,0.00,BKN,SKC,0.00,WeatherDisplay:10.37,2013-02-27 03:43:00,
2013-02-27 04:48:00,43.0,39.4,30.15,West,270,0.3,1.1,87,0.00,BKN,SKC,0.00,WeatherDisplay:10.37,2013-02-27 03:48:00,
2013-02-27 04:53:00,42.6,39.0,30.15,WNW,292,0.9,1.1,87,0.00,BKN,SKC,0.00,WeatherDisplay:10.37,2013-02-27 03:53:00,
2013-02-27 04:58:00,42.4,38.8,30.15,West,270,1.8,2.3,87,0.00,BKN,SKC,0.00,WeatherDisplay:10.37,2013-02-27 03:58:00,
2013-02-27 05:03:00,42.4,38.5,30.16,WNW,292,2.3,2.3,86,0.00,BKN,SKC,0.00,WeatherDisplay:10.37,2013-02-27 04:03:00,
2013-02-27 05:08:00,42.3,38.4,30.16,West,270,3.4,4.9,86,0.00,BKN,SKC,0.00,WeatherDisplay:10.37,2013-02-27 04:08:00,
2013-02-27 05:13:00,42.1,38.2,30.16,West,270,2.1,2.9,86,0.00,BKN,SKC,0.00,WeatherDisplay:10.37,2013-02-27 04:13:00,
2013-02-27 05:18:00,42.1,38.2,30.16,West,270,1.3,1.3,86,0.00,BKN,SKC,0.00,WeatherDisplay:10.37,2013-02-27 04:18:00,
2013-02-27 05:23:00,42.1,38.2,30.16,WNW,292,0.0,2.3,86,0.00,BKN,SKC,0.00,WeatherDisplay:10.37,2013-02-27 04:23:00,
2013-02-27 05:28:00,42.1,38.2,30.16,West,270,1.0,2.3,86,0.00,BKN,SKC,0.00,WeatherDisplay:10.37,2013-02-27 04:28:00,
2013-02-27 05:33:00,41.7,37.8,30.16,WNW,292,2.0,3.5,86,0.00,BKN,SKC,0.00,WeatherDisplay:10.37,2013-02-27 04:33:00,
2013-02-27 05:38:00,41.5,37.7,30.16,WNW,292,1.3,1.3,86,0.00,BKN,SKC,0.00,WeatherDisplay:10.37,2013-02-27 04:38:00,
2013-02-27 05:43:00,41.5,37.7,30.17,West,270,2.5,3.5,86,0.00,BKN,SKC,0.00,WeatherDisplay:10.37,2013-02-27 04:43:00,
2013-02-27 05:48:00,41.4,37.5,30.16,WNW,292,3.5,5.4,86,0.00,OVC,SKC,0.00,WeatherDisplay:10.37,2013-02-27 04:48:00,
2013-02-27 05:53:00,41.4,37.5,30.16,West,270,3.1,3.5,86,0.00,OVC,SKC,0.00,WeatherDisplay:10.37,2013-02-27 04:53:00,
2013-02-27 05:58:00,41.5,37.7,30.16,WNW,292,2.6,3.5,86,0.00,OVC,SKC,0.00,WeatherDisplay:10.37,2013-02-27 04:58:00,
2013-02-27 06:00:00,41.5,37.7,30.16,WNW,292,6.0,6.0,86,0.00,OVC,SKC,0.00,WeatherDisplay:10.37,2013-02-27 05:00:00,
2013-02-27 06:01:00,41.5,37.7,30.16,West,270,2.6,5.8,86,0.00,OVC,SKC,0.00,WeatherDisplay:10.37,2013-02-27 05:01:00,
2013-02-27 06:06:00,41.5,37.7,30.17,WNW,292,3.3,3.5,86,0.00,OVC,SKC,0.00,WeatherDisplay:10.37,2013-02-27 05:06:00,
2013-02-27 06:11:00,41.4,37.5,30.17,WNW,292,2.1,2.3,86,0.00,OVC,SKC,0.00,WeatherDisplay:10.37,2013-02-27 05:11:00,
2013-02-27 06:16:00,41.4,37.5,30.17,NNW,338,1.3,1.3,86,0.00,OVC,SKC,0.00,WeatherDisplay:10.37,2013-02-27 05:16:00,
2013-02-27 06:21:00,41.2,37.3,30.17,NNW,338,1.7,3.5,86,0.00,BKN,SKC,0.00,WeatherDisplay:10.37,2013-02-27 05:21:00,
2013-02-27 06:26:00,41.2,37.3,30.17,WNW,292,2.8,3.6,86,0.00,BKN,SKC,0.00,WeatherDisplay:10.37,2013-02-27 05:26:00,
2013-02-27 06:31:00,41.2,37.3,30.17,WNW,292,3.4,3.5,86,0.00,BKN,SKC,0.00,WeatherDisplay:10.37,2013-02-27 05:31:00,
2013-02-27 06:36:00,40.8,37.0,30.17,WNW,292,1.6,3.5,86,0.00,BKN,SKC,0.00,WeatherDisplay:10.37,2013-02-27 05:36:00,
2013-02-27 06:41:00,40.8,37.0,30.17,WSW,248,2.9,3.5,86,0.00,BKN,SKC,0.00,WeatherDisplay:10.37,2013-02-27 05:41:00,
2013-02-27 06:46:00,40.8,37.3,30.17,West,270,2.9,3.5,87,0.00,BKN,SKC,0.00,WeatherDisplay:10.37,2013-02-27 05:46:00,
2013-02-27 06:51:00,40.8,37.3,30.17,WNW,292,1.1,1.1,87,0.00,BKN,SKC,0.00,WeatherDisplay:10.37,2013-02-27 05:51:00,
2013-02-27 06:56:00,40.8,37.3,30.18,WNW,292,1.3,2.3,87,0.00,BKN,SKC,0.00,WeatherDisplay:10.37,2013-02-27 05:56:00,
2013-02-27 07:01:00,40.8,37.3,30.17,WNW,292,0.0,1.1,87,0.00,BKN,SKC,0.00,WeatherDisplay:10.37,2013-02-27 06:01:00,
2013-02-27 07:06:00,40.8,37.3,30.17,WNW,292,4.5,4.6,87,0.00,BKN,SKC,0.00,WeatherDisplay:10.37,2013-02-27 06:06:00,
2013-02-27 07:11:00,40.8,37.5,30.18,West,270,0.0,0.0,88,0.00,BKN,SKC,0.00,WeatherDisplay:10.37,2013-02-27 06:11:00,
2013-02-27 07:16:00,40.8,37.5,30.18,ENE,68,0.0,0.0,88,0.00,BKN,SKC,0.00,WeatherDisplay:10.37,2013-02-27 06:16:00,
2013-02-27 07:21:00,41.2,37.9,30.19,North,0,0.0,2.3,88,0.00,BKN,SKC,0.00,WeatherDisplay:10.37,2013-02-27 06:21:00,
2013-02-27 07:26:00,41.2,37.9,30.19,WSW,248,0.0,0.0,88,0.00,BKN,SKC,0.00,WeatherDisplay:10.37,2013-02-27 06:26:00,
2013-02-27 07:31:00,41.2,37.9,30.19,North,0,0.0,0.0,88,0.00,BKN,SKC,0.00,WeatherDisplay:10.37,2013-02-27 06:31:00,
2013-02-27 07:36:00,41.2,37.9,30.19,West,270,2.2,2.3,88,0.00,BKN,SKC,0.00,WeatherDisplay:10.37,2013-02-27 06:36:00,
2013-02-27 07:41:00,41.2,37.9,30.19,West,270,0.0,0.0,88,0.00,BKN,SKC,0.00,WeatherDisplay:10.37,2013-02-27 06:41:00,
2013-02-27 07:46:00,41.2,37.9,30.19,West,270,1.1,1.1,88,0.00,BKN,SKC,0.00,WeatherDisplay:10.37,2013-02-27 06:46:00,
2013-02-27 07:51:00,41.4,38.1,30.18,West,270,1.1,2.9,88,0.00,BKN,SKC,0.00,WeatherDisplay:10.37,2013-02-27 06:51:00,
2013-02-27 07:56:00,41.3,38.0,30.19,West,271,2.0,3.0,88,0.00,BKN,SKC,0.00,WeatherDisplay:10.37,2013-02-27 06:56:00,
2013-02-27 08:01:00,41.2,37.9,30.19,West,280,5.0,5.0,88,0.00,BKN,SKC,0.00,WeatherDisplay:10.37,2013-02-27 07:01:00,
2013-02-27 08:06:00,41.2,37.9,30.19,WNW,292,4.0,5.8,88,0.00,BKN,SKC,0.00,WeatherDisplay:10.37,2013-02-27 07:06:00,
2013-02-27 08:11:00,41.2,37.9,30.19,WNW,292,0.0,0.0,88,0.00,BKN,SKC,0.00,WeatherDisplay:10.37,2013-02-27 07:11:00,
2013-02-27 08:16:00,41.4,38.1,30.19,WNW,292,1.6,1.6,88,0.00,BKN,SKC,0.00,WeatherDisplay:10.37,2013-02-27 07:16:00,
2013-02-27 08:21:00,41.5,38.3,30.19,WNW,292,2.1,8.1,88,0.00,BKN,SKC,0.00,WeatherDisplay:10.37,2013-02-27 07:21:00,
2013-02-27 08:26:00,41.5,38.3,30.19,WNW,292,4.5,4.6,88,0.00,BKN,SKC,0.00,WeatherDisplay:10.37,2013-02-27 07:26:00,
2013-02-27 08:31:00,41.5,38.3,30.19,WNW,292,4.9,4.9,88,0.00,BKN,SKC,0.00,WeatherDisplay:10.37,2013-02-27 07:31:00,
2013-02-27 08:36:00,41.4,37.8,30.19,West,270,3.1,3.5,87,0.00,BKN,SKC,0.00,WeatherDisplay:10.37,2013-02-27 07:36:00,
2013-02-27 08:41:00,41.4,37.8,30.18,NNW,338,3.5,3.6,87,0.00,BKN,SKC,0.00,WeatherDisplay:10.37,2013-02-27 07:41:00,
2013-02-27 08:46:00,41.5,38.3,30.18,WNW,292,1.8,2.3,88,0.00,BKN,SKC,0.00,WeatherDisplay:10.37,2013-02-27 07:46:00,
2013-02-27 08:51:00,41.7,38.1,30.18,WNW,292,3.7,3.8,87,0.00,BKN,SKC,0.00,WeatherDisplay:10.37,2013-02-27 07:51:00,
2013-02-27 08:56:00,42.4,38.8,30.18,WNW,292,6.2,9.2,87,0.00,BKN,SKC,0.00,WeatherDisplay:10.37,2013-02-27 07:56:00,
2013-02-27 09:01:00,42.6,39.0,30.19,West,270,5.4,5.8,87,0.00,BKN,SKC,0.00,WeatherDisplay:10.37,2013-02-27 08:01:00,
2013-02-27 09:06:00,43.2,39.3,30.19,West,270,2.6,3.5,86,0.00,BKN,SKC,0.00,WeatherDisplay:10.37,2013-02-27 08:06:00,
2013-02-27 09:11:00,43.5,39.3,30.19,West,270,4.6,5.8,85,0.00,BKN,SKC,0.00,WeatherDisplay:10.37,2013-02-27 08:11:00,
2013-02-27 09:16:00,43.5,39.3,30.19,West,270,3.8,4.6,85,0.00,BKN,SKC,0.00,WeatherDisplay:10.37,2013-02-27 08:16:00,
2013-02-27 09:21:00,43.9,39.7,30.19,WNW,292,7.8,8.1,85,0.00,BKN,SKC,0.00,WeatherDisplay:10.37,2013-02-27 08:21:00,
2013-02-27 09:26:00,44.2,39.4,30.19,SW,225,2.8,4.6,83,0.00,BKN,SKC,0.00,WeatherDisplay:10.37,2013-02-27 08:26:00,
2013-02-27 09:31:00,44.4,39.6,30.19,WNW,292,2.9,3.5,83,0.00,BKN,SKC,0.00,WeatherDisplay:10.37,2013-02-27 08:31:00,
2013-02-27 09:36:00,44.8,39.6,30.19,North,0,4.0,6.9,82,0.00,BKN,SKC,0.00,WeatherDisplay:10.37,2013-02-27 08:36:00,
2013-02-27 09:41:00,44.8,39.6,30.19,WNW,292,4.0,4.0,82,0.00,BKN,SKC,0.00,WeatherDisplay:10.37,2013-02-27 08:41:00,
2013-02-27 09:46:00,45.1,40.0,30.20,NNW,338,2.5,3.5,82,0.00,BKN,SKC,0.00,WeatherDisplay:10.37,2013-02-27 08:46:00,
2013-02-27 09:51:00,45.7,40.2,30.19,West,270,0.0,0.0,81,0.00,BKN,SKC,0.00,WeatherDisplay:10.37,2013-02-27 08:51:00,
2013-02-27 09:56:00,46.0,40.2,30.19,WNW,292,2.2,2.3,80,0.00,BKN,SKC,0.00,WeatherDisplay:10.37,2013-02-27 08:56:00,
2013-02-27 10:01:00,46.0,39.9,30.20,WNW,292,3.3,8.1,79,0.00,BKN,SKC,0.00,WeatherDisplay:10.37,2013-02-27 09:01:00,
2013-02-27 10:06:00,46.0,39.9,30.20,NW,315,6.0,6.0,79,0.00,BKN,SKC,0.00,WeatherDisplay:10.37,2013-02-27 09:06:00,
2013-02-27 10:11:00,46.0,39.6,30.20,West,270,3.6,3.6,78,0.00,BKN,SKC,0.00,WeatherDisplay:10.37,2013-02-27 09:11:00,
2013-02-27 10:16:00,46.0,39.9,30.20,WNW,292,0.7,2.3,79,0.00,BKN,SKC,0.00,WeatherDisplay:10.37,2013-02-27 09:16:00,
2013-02-27 10:21:00,46.2,40.1,30.20,West,270,7.4,7.4,79,0.00,BKN,SKC,0.00,WeatherDisplay:10.37,2013-02-27 09:21:00,
2013-02-27 10:26:00,46.0,39.6,30.21,NW,315,4.1,6.9,78,0.00,BKN,SKC,0.00,WeatherDisplay:10.37,2013-02-27 09:26:00,
2013-02-27 10:31:00,46.0,39.6,30.20,West,270,6.0,6.0,78,0.00,BKN,SKC,0.00,WeatherDisplay:10.37,2013-02-27 09:31:00,
2013-02-27 10:36:00,45.5,38.7,30.20,WNW,292,8.5,9.2,77,0.00,BKN,SKC,0.00,WeatherDisplay:10.37,2013-02-27 09:36:00,
2013-02-27 10:41:00,45.3,38.5,30.20,WNW,292,6.7,6.9,77,0.00,BKN,SKC,0.00,WeatherDisplay:10.37,2013-02-27 09:41:00,
2013-02-27 10:46:00,45.7,39.2,30.21,WNW,292,3.0,4.0,78,0.00,BKN,SKC,0.00,WeatherDisplay:10.37,2013-02-27 09:46:00,
2013-02-27 10:51:00,45.7,39.2,30.21,SSW,202,5.3,8.1,78,0.00,BKN,SKC,0.00,WeatherDisplay:10.37,2013-02-27 09:51:00,
2013-02-27 10:56:00,46.0,39.6,30.21,NNE,22,2.5,4.6,78,0.00,BKN,SKC,0.00,WeatherDisplay:10.37,2013-02-27 09:56:00,
2013-02-27 11:01:00,46.2,39.7,30.21,WNW,292,3.8,3.8,78,0.00,BKN,SKC,0.00,WeatherDisplay:10.37,2013-02-27 10:01:00,
2013-02-27 11:06:00,46.6,40.1,30.21,West,270,2.2,2.3,78,0.00,BKN,SKC,0.00,WeatherDisplay:10.37,2013-02-27 10:06:00,
2013-02-27 11:11:00,46.6,39.8,30.21,NNW,338,2.2,4.6,77,0.00,BKN,SKC,0.00,WeatherDisplay:10.37,2013-02-27 10:11:00,
2013-02-27 11:17:00,46.9,39.8,30.21,NNW,338,3.8,5.8,76,0.00,BKN,SKC,0.00,WeatherDisplay:10.37,2013-02-27 10:17:00,
2013-02-27 11:22:00,46.8,39.6,30.21,WNW,292,0.3,2.3,76,0.00,BKN,SKC,0.00,WeatherDisplay:10.37,2013-02-27 10:22:00,
2013-02-27 11:27:00,47.1,39.9,30.21,West,270,4.0,4.0,76,0.02,RA,SKC,0.02,WeatherDisplay:10.37,2013-02-27 10:27:00,
2013-02-27 11:32:00,46.9,39.8,30.21,North,0,1.3,5.8,76,0.02,RA,SKC,0.02,WeatherDisplay:10.37,2013-02-27 10:32:00,
2013-02-27 11:37:00,47.3,40.5,30.21,WNW,292,1.6,1.6,77,0.02,BKN,SKC,0.02,WeatherDisplay:10.37,2013-02-27 10:37:00,
2013-02-27 11:42:00,47.7,40.8,30.21,North,0,0.0,0.0,77,0.02,BKN,SKC,0.02,WeatherDisplay:10.37,2013-02-27 10:42:00,
2013-02-27 11:47:00,48.0,40.5,30.21,WNW,292,1.3,4.6,75,0.02,BKN,SKC,0.02,WeatherDisplay:10.37,2013-02-27 10:47:00,
2013-02-27 11:52:00,48.0,40.5,30.21,West,270,3.1,3.5,75,0.02,BKN,SKC,0.02,WeatherDisplay:10.37,2013-02-27 10:52:00,
2013-02-27 11:57:00,48.6,41.0,30.21,West,270,0.0,0.0,75,0.02,BKN,SKC,0.02,WeatherDisplay:10.37,2013-02-27 10:57:00,
2013-02-27 12:02:00,48.4,40.8,30.21,WNW,292,1.1,3.5,75,0.02,BKN,SKC,0.02,WeatherDisplay:10.37,2013-02-27 11:02:00,
2013-02-27 12:07:00,48.7,40.8,30.21,WNW,292,2.0,2.0,74,0.02,BKN,SKC,0.02,WeatherDisplay:10.37,2013-02-27 11:07:00,
2013-02-27 12:12:00,48.6,40.6,30.21,WNW,292,0.9,2.3,74,0.02,BKN,SKC,0.02,WeatherDisplay:10.37,2013-02-27 11:12:00,
2013-02-27 12:17:00,48.7,40.5,30.20,WNW,292,2.7,2.7,73,0.02,BKN,SKC,0.02,WeatherDisplay:10.37,2013-02-27 11:17:00,
2013-02-27 12:22:00,48.9,40.6,30.20,WNW,292,1.6,1.6,73,0.02,BKN,SKC,0.02,WeatherDisplay:10.37,2013-02-27 11:22:00,
2013-02-27 12:27:00,48.7,40.5,30.20,WNW,292,4.0,5.8,73,0.00,BKN,SKC,0.02,WeatherDisplay:10.37,2013-02-27 11:27:00,
2013-02-27 12:32:00,48.7,40.8,30.20,WNW,292,0.0,0.0,74,0.00,BKN,SKC,0.02,WeatherDisplay:10.37,2013-02-27 11:32:00,
2013-02-27 12:37:00,48.7,40.8,30.20,NNW,338,2.5,3.5,74,0.00,BKN,SKC,0.02,WeatherDisplay:10.37,2013-02-27 11:37:00,
2013-02-27 12:42:00,48.4,40.5,30.20,West,270,3.9,5.8,74,0.00,BKN,SKC,0.02,WeatherDisplay:10.37,2013-02-27 11:42:00,
2013-02-27 12:47:00,48.2,40.3,30.20,NW,315,5.4,5.8,74,0.00,BKN,SKC,0.02,WeatherDisplay:10.37,2013-02-27 11:47:00,
2013-02-27 12:52:00,48.2,40.3,30.21,WNW,292,3.1,5.8,74,0.00,BKN,SKC,0.02,WeatherDisplay:10.37,2013-02-27 11:52:00,
2013-02-27 12:57:00,48.0,40.5,30.20,WSW,248,3.8,11.5,75,0.00,BKN,SKC,0.02,WeatherDisplay:10.37,2013-02-27 11:57:00,
2013-02-27 13:02:00,47.7,40.1,30.20,WNW,292,4.5,4.6,75,0.00,BKN,SKC,0.02,WeatherDisplay:10.37,2013-02-27 12:02:00,
2013-02-27 13:07:00,47.5,40.3,30.20,NW,315,6.4,6.9,76,0.00,BKN,SKC,0.02,WeatherDisplay:10.37,2013-02-27 12:07:00,
2013-02-27 13:12:00,47.1,39.9,30.20,WNW,292,7.9,10.4,76,0.00,BKN,SKC,0.02,WeatherDisplay:10.37,2013-02-27 12:12:00,
2013-02-27 13:17:00,47.1,39.9,30.20,NW,315,4.0,4.0,76,0.00,BKN,SKC,0.02,WeatherDisplay:10.37,2013-02-27 12:17:00,
2013-02-27 13:22:00,47.1,39.9,30.20,West,270,5.6,6.0,76,0.00,BKN,SKC,0.02,WeatherDisplay:10.37,2013-02-27 12:22:00,
2013-02-27 13:27:00,46.9,39.8,30.20,WSW,248,3.1,7.4,76,0.00,BKN,SKC,0.02,WeatherDisplay:10.37,2013-02-27 12:27:00,
2013-02-27 13:32:00,46.9,40.1,30.20,WNW,292,9.4,9.4,77,0.00,BKN,SKC,0.02,WeatherDisplay:10.37,2013-02-27 12:32:00,
2013-02-27 13:37:00,46.8,39.9,30.20,WNW,292,7.2,7.2,77,0.00,BKN,SKC,0.02,WeatherDisplay:10.37,2013-02-27 12:37:00,
2013-02-27 13:42:00,46.8,39.9,30.20,West,270,3.4,3.5,77,0.00,BKN,SKC,0.02,WeatherDisplay:10.37,2013-02-27 12:42:00,
2013-02-27 13:47:00,46.8,39.9,30.20,SW,225,3.4,3.5,77,0.00,BKN,SKC,0.02,WeatherDisplay:10.37,2013-02-27 12:47:00,
2013-02-27 13:52:00,46.9,40.1,30.20,NW,315,10.6,11.5,77,0.00,BKN,SKC,0.02,WeatherDisplay:10.37,2013-02-27 12:52:00,
2013-02-27 13:57:00,47.1,40.6,30.20,WNW,292,3.9,5.8,78,0.00,BKN,SKC,0.02,WeatherDisplay:10.37,2013-02-27 12:57:00,
2013-02-27 14:03:00,47.1,40.3,30.20,WNW,292,4.4,6.9,77,0.00,BKN,SKC,0.02,WeatherDisplay:10.37,2013-02-27 13:03:00,
2013-02-27 14:08:00,47.1,40.3,30.20,WNW,292,5.5,6.9,77,0.00,BKN,SKC,0.02,WeatherDisplay:10.37,2013-02-27 13:08:00,
2013-02-27 14:13:00,47.3,40.5,30.20,West,270,4.5,6.9,77,0.00,BKN,SKC,0.02,WeatherDisplay:10.37,2013-02-27 13:13:00,
2013-02-27 14:18:00,47.7,40.8,30.19,WNW,292,3.1,3.5,77,0.00,BKN,SKC,0.02,WeatherDisplay:10.37,2013-02-27 13:18:00,
2013-02-27 14:23:00,47.8,40.6,30.19,WNW,292,8.1,8.3,76,0.00,BKN,SKC,0.02,WeatherDisplay:10.37,2013-02-27 13:23:00,
2013-02-27 14:28:00,47.8,40.6,30.19,NW,315,0.9,1.1,76,0.00,BKN,SKC,0.02,WeatherDisplay:10.37,2013-02-27 13:28:00,
2013-02-27 14:33:00,48.0,40.8,30.20,WNW,292,2.0,2.3,76,0.00,BKN,SKC,0.02,WeatherDisplay:10.37,2013-02-27 13:33:00,
2013-02-27 14:38:00,48.2,41.0,30.20,NNE,22,4.7,4.7,76,0.00,BKN,SKC,0.02,WeatherDisplay:10.37,2013-02-27 13:38:00,
2013-02-27 14:43:00,48.0,40.8,30.20,West,270,6.5,6.9,76,0.00,BKN,SKC,0.02,WeatherDisplay:10.37,2013-02-27 13:43:00,
2013-02-27 14:48:00,48.0,40.8,30.20,WNW,292,5.6,5.8,76,0.00,BKN,SKC,0.02,WeatherDisplay:10.37,2013-02-27 13:48:00,
2013-02-27 14:53:00,48.0,41.2,30.20,NW,315,1.3,1.3,77,0.00,BKN,SKC,0.02,WeatherDisplay:10.37,2013-02-27 13:53:00,
2013-02-27 14:58:00,47.8,41.0,30.19,West,270,5.8,10.4,77,0.00,BKN,SKC,0.02,WeatherDisplay:10.37,2013-02-27 13:58:00,
2013-02-27 15:03:00,47.8,41.0,30.20,WNW,292,7.6,8.1,77,0.00,BKN,SKC,0.02,WeatherDisplay:10.37,2013-02-27 14:03:00,
2013-02-27 15:08:00,47.3,40.5,30.19,WNW,292,6.3,9.2,77,0.00,BKN,SKC,0.02,WeatherDisplay:10.37,2013-02-27 14:08:00,
2013-02-27 15:13:00,47.3,40.5,30.19,WNW,292,6.7,6.9,77,0.00,BKN,SKC,0.02,WeatherDisplay:10.37,2013-02-27 14:13:00,
2013-02-27 15:18:00,47.3,40.5,30.19,WNW,292,8.0,9.2,77,0.00,BKN,SKC,0.02,WeatherDisplay:10.37,2013-02-27 14:18:00,
2013-02-27 15:23:00,47.3,40.5,30.20,NW,315,3.8,3.8,77,0.00,BKN,SKC,0.02,WeatherDisplay:10.37,2013-02-27 14:23:00,
2013-02-27 15:28:00,47.5,40.6,30.20,WNW,292,3.8,3.8,77,0.00,BKN,SKC,0.02,WeatherDisplay:10.37,2013-02-27 14:28:00,
2013-02-27 15:33:00,47.5,40.6,30.20,West,270,1.8,2.3,77,0.00,BKN,SKC,0.02,WeatherDisplay:10.37,2013-02-27 14:33:00,
2013-02-27 15:38:00,47.1,40.6,30.20,WNW,292,11.3,13.8,78,0.00,BKN,SKC,0.02,WeatherDisplay:10.37,2013-02-27 14:38:00,
2013-02-27 15:43:00,46.8,40.3,30.20,WSW,248,8.9,13.8,78,0.00,BKN,SKC,0.02,WeatherDisplay:10.37,2013-02-27 14:43:00,
2013-02-27 15:48:00,46.6,40.4,30.20,West,270,6.1,6.9,79,0.00,BKN,SKC,0.02,WeatherDisplay:10.37,2013-02-27 14:48:00,
2013-02-27 15:53:00,46.6,40.4,30.19,North,0,7.1,7.1,79,0.00,BKN,SKC,0.02,WeatherDisplay:10.37,2013-02-27 14:53:00,
2013-02-27 15:58:00,46.2,40.4,30.20,WNW,292,9.3,10.4,80,0.00,BKN,SKC,0.02,WeatherDisplay:10.37,2013-02-27 14:58:00,
2013-02-27 16:03:00,46.0,40.2,30.20,NW,315,5.0,9.2,80,0.00,BKN,SKC,0.02,WeatherDisplay:10.37,2013-02-27 15:03:00,
2013-02-27 16:08:00,46.0,40.2,30.20,West,270,3.1,3.5,80,0.00,BKN,SKC,0.02,WeatherDisplay:10.37,2013-02-27 15:08:00,
2013-02-27 16:13:00,46.0,40.2,30.20,West,270,4.2,8.1,80,0.00,BKN,SKC,0.02,WeatherDisplay:10.37,2013-02-27 15:13:00,
2013-02-27 16:18:00,45.9,40.0,30.20,North,0,2.5,3.5,80,0.00,BKN,SKC,0.02,WeatherDisplay:10.37,2013-02-27 15:18:00,
2013-02-27 16:23:00,45.7,39.9,30.20,West,270,8.5,8.5,80,0.00,BKN,SKC,0.02,WeatherDisplay:10.37,2013-02-27 15:23:00,
2013-02-27 16:28:00,45.7,39.9,30.21,NW,315,6.7,6.7,80,0.00,BKN,SKC,0.02,WeatherDisplay:10.37,2013-02-27 15:28:00,
2013-02-27 16:33:00,45.7,39.9,30.20,West,270,6.9,6.9,80,0.00,BKN,SKC,0.02,WeatherDisplay:10.37,2013-02-27 15:33:00,
2013-02-27 16:38:00,45.7,39.9,30.21,West,270,6.9,6.9,80,0.00,BKN,SKC,0.02,WeatherDisplay:10.37,2013-02-27 15:38:00,
2013-02-27 16:43:00,45.5,40.0,30.21,WNW,292,5.4,5.8,81,0.00,BKN,SKC,0.02,WeatherDisplay:10.37,2013-02-27 15:43:00,
2013-02-27 16:48:00,45.3,39.8,30.21,West,270,4.5,5.1,81,0.00,BKN,SKC,0.02,WeatherDisplay:10.37,2013-02-27 15:48:00,
2013-02-27 16:53:00,45.3,39.8,30.21,West,270,3.6,3.6,81,0.00,BKN,SKC,0.02,WeatherDisplay:10.37,2013-02-27 15:53:00,
2013-02-27 16:58:00,45.3,39.8,30.22,West,270,6.9,6.9,81,0.00,BKN,SKC,0.02,WeatherDisplay:10.37,2013-02-27 15:58:00,
2013-02-27 17:03:00,45.1,39.7,30.22,WNW,292,2.9,3.5,81,0.00,-RA,SKC,0.02,WeatherDisplay:10.37,2013-02-27 16:03:00,
2013-02-27 17:08:00,45.1,40.0,30.21,WNW,292,8.3,8.3,82,0.00,-RA,SKC,0.02,WeatherDisplay:10.37,2013-02-27 16:08:00,
2013-02-27 17:13:00,45.1,40.0,30.21,WNW,292,5.7,5.8,82,0.00,-RA,SKC,0.02,WeatherDisplay:10.37,2013-02-27 16:13:00,
2013-02-27 17:18:00,45.1,40.0,30.22,NW,315,4.7,4.7,82,0.00,BKN,SKC,0.02,WeatherDisplay:10.37,2013-02-27 16:18:00,
2013-02-27 17:23:00,45.0,39.8,30.22,WNW,292,9.6,10.4,82,0.00,BKN,SKC,0.02,WeatherDisplay:10.37,2013-02-27 16:23:00,
2013-02-27 17:28:00,45.0,39.8,30.22,WNW,289,7.0,8.0,82,0.00,BKN,SKC,0.02,WeatherDisplay:10.37,2013-02-27 16:28:00,
2013-02-27 17:33:00,44.8,39.6,30.22,West,270,3.2,3.5,82,0.00,BKN,SKC,0.02,WeatherDisplay:10.37,2013-02-27 16:33:00,
2013-02-27 17:38:00,44.8,39.6,30.22,West,270,4.4,4.4,82,0.00,BKN,SKC,0.02,WeatherDisplay:10.37,2013-02-27 16:38:00,
2013-02-27 17:43:00,44.8,39.6,30.22,West,275,5.0,5.0,82,0.00,BKN,SKC,0.02,WeatherDisplay:10.37,2013-02-27 16:43:00,
2013-02-27 17:48:00,44.8,39.6,30.23,West,276,3.0,3.0,82,0.00,BKN,SKC,0.02,WeatherDisplay:10.37,2013-02-27 16:48:00,
2013-02-27 17:53:00,44.4,39.3,30.22,WNW,292,6.0,10.4,82,0.00,BKN,SKC,0.02,WeatherDisplay:10.37,2013-02-27 16:53:00,
2013-02-27 17:58:00,44.4,39.6,30.22,WNW,291,6.0,7.0,83,0.00,BKN,SKC,0.02,WeatherDisplay:10.37,2013-02-27 16:58:00,
2013-02-27 18:03:00,44.4,39.6,30.22,WNW,292,5.6,5.8,83,0.00,BKN,SKC,0.02,WeatherDisplay:10.37,2013-02-27 17:03:00,
2013-02-27 18:08:00,44.4,39.6,30.23,WNW,292,3.6,8.1,83,0.00,BKN,SKC,0.02,WeatherDisplay:10.37,2013-02-27 17:08:00,
2013-02-27 18:13:00,44.4,39.6,30.23,WNW,293,3.0,9.0,83,0.00,BKN,SKC,0.02,WeatherDisplay:10.37,2013-02-27 17:13:00,
2013-02-27 18:18:00,44.2,39.4,30.24,WNW,284,5.0,5.0,83,0.00,BKN,SKC,0.02,WeatherDisplay:10.37,2013-02-27 17:18:00,
2013-02-27 18:23:00,44.2,39.7,30.23,WNW,284,5.0,5.0,84,0.00,BKN,SKC,0.02,WeatherDisplay:10.37,2013-02-27 17:23:00,
2013-02-27 18:28:00,44.2,39.7,30.23,West,277,10.0,11.0,84,0.00,BKN,SKC,0.02,WeatherDisplay:10.37,2013-02-27 17:28:00,
2013-02-27 18:33:00,44.2,39.7,30.24,West,262,3.0,4.0,84,0.00,BKN,SKC,0.02,WeatherDisplay:10.37,2013-02-27 17:33:00,
2013-02-27 18:38:00,44.1,39.5,30.24,West,270,3.0,3.0,84,0.00,BKN,SKC,0.02,WeatherDisplay:10.37,2013-02-27 17:38:00,
2013-02-27 18:43:00,44.1,39.5,30.24,WNW,288,3.0,4.0,84,0.00,BKN,SKC,0.02,WeatherDisplay:10.37,2013-02-27 17:43:00,
2013-02-27 18:48:00,44.2,39.7,30.24,WNW,292,6.0,7.0,84,0.00,BKN,SKC,0.02,WeatherDisplay:10.37,2013-02-27 17:48:00,
2013-02-27 18:53:00,44.2,39.7,30.24,NW,305,5.0,5.0,84,0.00,BKN,SKC,0.02,WeatherDisplay:10.37,2013-02-27 17:53:00,
2013-02-27 18:58:00,44.2,39.7,30.24,NW,317,5.0,6.0,84,0.00,BKN,SKC,0.02,WeatherDisplay:10.37,2013-02-27 17:58:00,
2013-02-27 19:03:00,44.1,39.5,30.25,North,0,3.8,3.8,84,0.00,BKN,SKC,0.02,WeatherDisplay:10.37,2013-02-27 18:03:00,
2013-02-27 19:08:00,44.1,39.5,30.25,WNW,292,6.5,8.1,84,0.00,BKN,SKC,0.02,WeatherDisplay:10.37,2013-02-27 18:08:00,
2013-02-27 19:13:00,44.1,39.5,30.25,WNW,292,1.1,1.1,84,0.00,BKN,SKC,0.02,WeatherDisplay:10.37,2013-02-27 18:13:00,
2013-02-27 19:18:00,43.9,39.4,30.25,WNW,292,5.6,10.1,84,0.00,BKN,SKC,0.02,WeatherDisplay:10.37,2013-02-27 18:18:00,
2013-02-27 19:23:00,43.9,39.4,30.25,NW,315,6.0,6.3,84,0.00,BKN,SKC,0.02,WeatherDisplay:10.37,2013-02-27 18:23:00,
2013-02-27 19:28:00,43.9,39.4,30.25,ENE,68,2.2,2.3,84,0.00,BKN,SKC,0.02,WeatherDisplay:10.37,2013-02-27 18:28:00,
2013-02-27 19:33:00,43.9,39.4,30.25,WNW,292,3.3,5.8,84,0.00,BKN,SKC,0.02,WeatherDisplay:10.37,2013-02-27 18:33:00,
2013-02-27 19:38:00,43.9,39.4,30.25,West,270,5.8,8.1,84,0.00,BKN,SKC,0.02,WeatherDisplay:10.37,2013-02-27 18:38:00,
2013-02-27 19:43:00,43.9,39.4,30.25,West,270,7.2,7.2,84,0.00,BKN,SKC,0.02,WeatherDisplay:10.37,2013-02-27 18:43:00,
2013-02-27 19:48:00,43.9,39.4,30.25,West,270,6.4,8.1,84,0.00,BKN,SKC,0.02,WeatherDisplay:10.37,2013-02-27 18:48:00,
2013-02-27 19:53:00,43.9,39.4,30.25,West,270,3.6,3.6,84,0.00,BKN,SKC,0.02,WeatherDisplay:10.37,2013-02-27 18:53:00,
2013-02-27 19:58:00,43.7,39.2,30.25,West,270,6.9,8.1,84,0.00,BKN,SKC,0.02,WeatherDisplay:10.37,2013-02-27 18:58:00,
2013-02-27 20:03:00,43.7,39.2,30.25,WSW,248,5.1,5.1,84,0.00,BKN,SKC,0.02,WeatherDisplay:10.37,2013-02-27 19:03:00,
2013-02-27 20:08:00,43.7,39.2,30.25,WNW,292,2.9,3.5,84,0.00,BKN,SKC,0.02,WeatherDisplay:10.37,2013-02-27 19:08:00,
2013-02-27 20:13:00,43.7,39.2,30.25,NW,315,4.9,4.9,84,0.00,BKN,SKC,0.02,WeatherDisplay:10.37,2013-02-27 19:13:00,
2013-02-27 20:18:00,43.7,39.2,30.25,WNW,292,4.0,6.3,84,0.00,BKN,SKC,0.02,WeatherDisplay:10.37,2013-02-27 19:18:00,
2013-02-27 20:23:00,43.5,39.0,30.25,NW,315,3.8,4.6,84,0.00,BKN,SKC,0.02,WeatherDisplay:10.37,2013-02-27 19:23:00,
2013-02-27 20:28:00,43.5,39.0,30.25,WNW,292,3.9,4.9,84,0.00,BKN,SKC,0.02,WeatherDisplay:10.37,2013-02-27 19:28:00,
2013-02-27 20:33:00,43.3,38.8,30.26,WNW,292,5.1,5.1,84,0.00,BKN,SKC,0.02,WeatherDisplay:10.37,2013-02-27 19:33:00,
2013-02-27 20:38:00,43.2,38.7,30.25,West,270,3.4,3.5,84,0.00,BKN,SKC,0.02,WeatherDisplay:10.37,2013-02-27 19:38:00,
2013-02-27 20:43:00,43.2,38.7,30.25,NW,315,4.9,5.6,84,0.00,BKN,SKC,0.02,WeatherDisplay:10.37,2013-02-27 19:43:00,
2013-02-27 20:48:00,43.0,38.8,30.26,West,270,1.6,1.6,85,0.00,CLR,SKC,0.02,WeatherDisplay:10.37,2013-02-27 19:48:00,
2013-02-27 20:54:00,42.6,38.4,30.25,West,270,1.6,1.6,85,0.00,CLR,SKC,0.02,WeatherDisplay:10.37,2013-02-27 19:54:00,
2013-02-27 20:59:00,42.6,38.4,30.26,WSW,248,3.2,5.8,85,0.00,CLR,SKC,0.02,WeatherDisplay:10.37,2013-02-27 19:59:00,
2013-02-27 21:04:00,42.6,38.4,30.26,West,270,5.8,5.8,85,0.00,CLR,SKC,0.02,WeatherDisplay:10.37,2013-02-27 20:04:00,
2013-02-27 21:09:00,42.4,38.2,30.26,West,270,2.2,2.3,85,0.00,CLR,SKC,0.02,WeatherDisplay:10.37,2013-02-27 20:09:00,
2013-02-27 21:14:00,42.3,38.1,30.26,WNW,292,2.2,2.3,85,0.00,CLR,SKC,0.02,WeatherDisplay:10.37,2013-02-27 20:14:00,
2013-02-27 21:19:00,42.1,38.2,30.26,West,270,6.6,8.1,86,0.00,CLR,SKC,0.02,WeatherDisplay:10.37,2013-02-27 20:19:00,
2013-02-27 21:24:00,42.1,38.2,30.26,West,270,8.9,9.2,86,0.00,CLR,SKC,0.02,WeatherDisplay:10.37,2013-02-27 20:24:00,
2013-02-27 21:29:00,42.1,38.2,30.26,NW,315,4.5,4.6,86,0.00,CLR,SKC,0.02,WeatherDisplay:10.37,2013-02-27 20:29:00,
2013-02-27 21:34:00,41.9,38.0,30.26,WNW,292,3.1,3.5,86,0.00,CLR,SKC,0.02,WeatherDisplay:10.37,2013-02-27 20:34:00,
2013-02-27 21:39:00,41.7,37.8,30.26,WNW,292,10.3,10.4,86,0.00,CLR,SKC,0.02,WeatherDisplay:10.37,2013-02-27 20:39:00,
2013-02-27 21:44:00,41.7,37.8,30.27,West,270,4.5,4.6,86,0.00,CLR,SKC,0.02,WeatherDisplay:10.37,2013-02-27 20:44:00,
2013-02-27 21:49:00,41.5,37.7,30.27,West,270,3.7,4.6,86,0.00,CLR,SKC,0.02,WeatherDisplay:10.37,2013-02-27 20:49:00,
2013-02-27 21:54:00,41.5,37.7,30.27,WSW,248,3.1,3.5,86,0.00,CLR,SKC,0.02,WeatherDisplay:10.37,2013-02-27 20:54:00,
2013-02-27 21:59:00,41.5,37.7,30.27,WNW,292,3.9,4.6,86,0.00,CLR,SKC,0.02,WeatherDisplay:10.37,2013-02-27 20:59:00,
2013-02-27 22:04:00,41.5,37.7,30.27,West,270,3.1,3.5,86,0.00,CLR,SKC,0.02,WeatherDisplay:10.37,2013-02-27 21:04:00,
2013-02-27 22:09:00,41.5,37.7,30.27,WSW,248,2.2,4.6,86,0.00,CLR,SKC,0.02,WeatherDisplay:10.37,2013-02-27 21:09:00,
2013-02-27 22:14:00,41.5,37.7,30.27,West,270,2.0,2.3,86,0.00,CLR,SKC,0.02,WeatherDisplay:10.37,2013-02-27 21:14:00,
2013-02-27 22:19:00,41.2,37.3,30.28,WNW,292,0.6,1.1,86,0.00,SCT,SKC,0.02,WeatherDisplay:10.37,2013-02-27 21:19:00,
2013-02-27 22:24:00,40.8,37.0,30.28,NNE,22,0.1,0.9,86,0.00,SCT,SKC,0.02,WeatherDisplay:10.37,2013-02-27 21:24:00,
2013-02-27 22:29:00,40.8,37.0,30.28,NE,45,0.0,0.0,86,0.00,SCT,SKC,0.02,WeatherDisplay:10.37,2013-02-27 21:29:00,
2013-02-27 22:34:00,40.6,37.1,30.28,NE,45,0.0,0.0,87,0.00,SCT,SKC,0.02,WeatherDisplay:10.37,2013-02-27 21:34:00,
2013-02-27 22:39:00,40.3,36.4,30.28,ESE,112,0.0,0.0,86,0.00,SCT,SKC,0.02,WeatherDisplay:10.37,2013-02-27 21:39:00,
2013-02-27 22:44:00,40.3,36.7,30.28,ESE,112,0.0,0.0,87,0.00,SCT,SKC,0.02,WeatherDisplay:10.37,2013-02-27 21:44:00,
2013-02-27 22:49:00,40.3,36.7,30.29,ENE,68,0.0,0.0,87,0.00,BKN,SKC,0.02,WeatherDisplay:10.37,2013-02-27 21:49:00,
2013-02-27 22:54:00,40.3,36.7,30.29,East,90,0.0,0.0,87,0.00,BKN,SKC,0.02,WeatherDisplay:10.37,2013-02-27 21:54:00,
2013-02-27 22:59:00,40.3,36.7,30.28,ESE,112,0.0,0.0,87,0.00,BKN,SKC,0.02,WeatherDisplay:10.37,2013-02-27 21:59:00,
2013-02-27 23:04:00,40.6,37.4,30.28,NW,315,0.0,0.0,88,0.00,BKN,SKC,0.02,WeatherDisplay:10.37,2013-02-27 22:04:00,
2013-02-27 23:09:00,40.6,37.4,30.29,NE,45,0.0,0.0,88,0.00,BKN,SKC,0.02,WeatherDisplay:10.37,2013-02-27 22:09:00,
2013-02-27 23:14:00,40.8,37.5,30.29,ENE,68,0.0,0.0,88,0.00,BKN,SKC,0.02,WeatherDisplay:10.37,2013-02-27 22:14:00,
2013-02-27 23:19:00,40.8,37.5,30.29,ENE,68,0.0,0.0,88,0.00,BKN,SKC,0.02,WeatherDisplay:10.37,2013-02-27 22:19:00,
2013-02-27 23:24:00,40.8,37.5,30.29,NE,45,0.0,0.0,88,0.00,BKN,SKC,0.02,WeatherDisplay:10.37,2013-02-27 22:24:00,
2013-02-27 23:29:00,40.8,37.5,30.29,NE,45,0.0,0.0,88,0.00,BKN,SKC,0.02,WeatherDisplay:10.37,2013-02-27 22:29:00,
2013-02-27 23:34:00,41.0,37.7,30.29,NE,45,0.0,0.0,88,0.00,BKN,SKC,0.02,WeatherDisplay:10.37,2013-02-27 22:34:00,
2013-02-27 23:39:00,41.0,37.7,30.29,NE,45,0.0,0.0,88,0.00,BKN,SKC,0.02,WeatherDisplay:10.37,2013-02-27 22:39:00,
2013-02-27 23:44:00,41.0,37.7,30.29,NE,45,0.0,0.0,88,0.00,BKN,SKC,0.02,WeatherDisplay:10.37,2013-02-27 22:44:00,
2013-02-27 23:49:00,41.0,37.7,30.30,NE,45,0.0,0.0,88,0.00,BKN,SKC,0.02,WeatherDisplay:10.37,2013-02-27 22:49:00,
2013-02-27 23:54:00,41.0,37.7,30.30,NE,45,0.0,0.0,88,0.00,BKN,SKC,0.02,WeatherDisplay:10.37,2013-02-27 22:54:00,
2013-02-27 23:59:00,41.0,37.7,30.29,ENE,78,0.0,0.0,88,0.00,BKN,SKC,0.02,WeatherDisplay:10.37,2013-02-27 22:59:00,